Flag for Iran Weather past 2 weeks in Esfahãn, Iran

Now
55 °F

Broken clouds.


Feels Like: 55 °F
Forecast: 51 / 80 °F
Wind: 5 mph from Southwest

Location: Esfahan


UV Index: 7 (High)

Visibility: N/A


Pressure: 30.09 "Hg

Humidity: 88%

Dew point: 52 °F

Location of EsfahãnLocation

Historic Weather in Esfahãn

°F

Esfahãn temperature yesterday

Maximum temperature yesterday: 75 °F (at 12:00 PM)
Minimum temperature yesterday: 52 °F (at 5:00 AM)
Average temperature yesterday: 65 °F

Past Weeks' High & Low Weather Summary

 TemperatureHumidityPressure
High84 °F (Apr 19, 2:30 PM)94% (Apr 23, 2:30 PM)30.24 "Hg (Apr 23, 2:30 PM)
Low43 °F (Apr 15, 6:00 AM)4% (Apr 19, 4:30 PM)29.92 "Hg (Apr 21, 5:00 PM)
Average65 °F31%30.08 "Hg
* Reported Apr 8 4:30 PM — Apr 23 4:30 PM, Esfahãn, Weather by CustomWeather, © 2014

Note: Actual official high and low records may vary slightly from our data, if they occured in-between our weather recording intervals... More about our weather records

Advertising

Historic Weather Conditions — Data for Previous 24 hours

 ConditionsComfort  
Time TempWeatherWind HumidityBarometerVisibility
4:30 PM
Apr 23
54 °FMore clouds than sun.5 mph94%30.15 "Hg5 mi
4:00 PM54 °FRain showers. Fog.12 mph94%30.15 "Hg1 mi
3:30 PM55 °FRain showers. Fog.16 mph88%30.15 "Hg1 mi
3:00 PM57 °FFog.9 mph88%30.15 "Hg2 mi
2:30 PM55 °FFog.5 mph94%30.15 "Hg2 mi
2:00 PM55 °FThunderstorms. Fog.18 mph88%30.15 "Hg2 mi
1:30 PM61 °FSprinkles. More clouds than sun.9 mph68%30.15 "Hg4 mi
1:00 PM61 °FCloudy.9 mph63%30.15 "HgN/A
12:30 PM61 °FMore clouds than sun.No wind63%30.15 "HgN/A
12:00 PM61 °FCloudy.9 mph63%30.18 "HgN/A
11:30 AM61 °FBroken clouds.5 mph59%30.18 "HgN/A
11:00 AM61 °FBroken clouds.7 mph68%30.18 "Hg4 mi
10:30 AM55 °FSprinkles. Fog.9 mph82%30.21 "Hg3 mi
10:00 AM55 °FSprinkles. Fog.9 mph88%30.21 "Hg2 mi
9:30 AM54 °FFog.5 mph88%30.24 "Hg3 mi
9:00 AM54 °FFog.9 mph82%30.24 "Hg2 mi
8:30 AM57 °FMore clouds than sun.14 mph63%30.21 "Hg3 mi
8:00 AM57 °FMore clouds than sun.16 mph67%30.21 "Hg2 mi
7:30 AM61 °FSandstorm.18 mph42%30.15 "Hg3 mi
7:00 AM59 °FSandstorm.18 mph48%30.15 "Hg2 mi
6:30 AM63 °FSandstorm.31 mph49%30.15 "Hg2 mi
6:00 AM55 °FHaze.No wind63%30.09 "Hg2 mi
5:30 AM55 °FHaze.No wind63%30.09 "Hg3 mi
5:00 AM57 °FHaze.5 mph55%30.07 "Hg3 mi
4:30 AM55 °FClear.5 mph59%30.09 "Hg4 mi
4:00 AM55 °FClear.No wind59%30.09 "Hg10 mi
3:30 AM57 °FClear.5 mph55%30.09 "Hg10 mi
3:00 AM54 °FClear.No wind63%30.09 "Hg10 mi
2:30 AM55 °FClear.5 mph59%30.09 "Hg10 mi
2:00 AM57 °FClear.5 mph59%30.12 "Hg10 mi
1:30 AM55 °FClear.5 mph67%30.12 "Hg10 mi
1:00 AM59 °FClear.5 mph59%30.12 "Hg10 mi
12:30 AM59 °FClear.5 mph59%30.12 "Hg10 mi
12:00 AM61 °FClear.5 mph55%30.12 "Hg10 mi
11:30 PM
Apr 22
59 °FClear.5 mph63%30.12 "Hg10 mi
11:00 PM63 °FPassing clouds.5 mph56%30.12 "HgN/A
10:30 PM63 °FPassing clouds.5 mph59%30.15 "HgN/A
10:00 PM63 °FPassing clouds.5 mph56%30.15 "HgN/A
9:30 PM63 °FPassing clouds.5 mph59%30.15 "HgN/A
9:00 PM66 °FThunderstorms. Scattered clouds.5 mph43%30.12 "Hg4 mi
8:30 PM66 °FSprinkles. Partly sunny.16 mph46%30.12 "Hg4 mi
8:00 PM70 °FThunderstorms. Broken clouds.No wind31%30.09 "HgN/A
7:30 PM72 °FBroken clouds.5 mph31%30.09 "HgN/A
7:00 PM73 °FBroken clouds.5 mph25%30.09 "HgN/A
6:30 PM73 °FBroken clouds.5 mph25%30.09 "HgN/A
6:00 PM73 °FScattered clouds.9 mph25%30.09 "HgN/A
5:30 PM75 °FScattered clouds.7 mph24%30.12 "HgN/A
5:00 PM75 °FScattered clouds.12 mph24%30.12 "HgN/A
Weather by CustomWeather, © 2014

See weather overview